Location: Laterina
(43.5167°N, 11.7167°E)
Time: 14:11:21
(UTC+00:00)

Cosmos 2026 Rocket - Pass Details

Date: 18 January 2021
Orbit: 940 x 1000 km, 82.9° (Epoch: 28 February)

Event Time Altitude Azimuth Distance (km) Brightness Sun altitude
Rises 17:00:36 0° 132° (SE) 3,601 6.7 -9.9°
Reaches altitude 10° 17:04:23 10° 108° (ESE) 2,670 5.8 -10.5°
Maximum altitude 17:07:20 14° 78° (ENE) 2,399 5.4 -11.0°
Enters shadow 17:07:30 14° 77° (ENE) 2,401 5.4 -11.1°
